Wind_Speed
15 22 24 25 27 21 17 17 16 13 12 11 7 7 9 15 21 21 21 21 19 17 14 16 16 12 18 21 22 20 22 22 20 17 14 12 10 8 8 9 10 12 15 16 13 9 8 7 6
13 19 24 25 27 20 16 21 19 18 14 13 10 8 8 13 21 22 22 21 18 16 13 16 18 17 20 21 19 21 22 20 18 15 12 10 8 7 8 8 9 11 14 15 12 9 8 7 8
14 14 21 24 25 19 15 22 23 22 18 15 13 10 10 13 20 23 23 22 18 15 12 16 21 21 19 19 17 21 21 19 16 13 11 9 6 6 6 6 7 11 14 16 12 8 6 7 8
19 16 15 22 21 20 20 23 22 23 21 17 15 13 12 15 19 24 24 23 21 19 14 17 20 21 21 18 19 22 21 18 16 12 9 7 5 5 5 3 6 9 13 15 10 6 6 7 8
22 21 18 12 14 21 21 21 20 23 21 19 17 17 14 15 19 25 27 25 24 21 20 18 20 21 21 18 21 22 21 19 15 12 8 5 3 3 4 2 4 8 12 14 9 6 6 7 8
27 25 22 14 9 15 27 29 24 23 23 21 20 19 15 16 19 23 28 27 25 24 23 22 22 22 21 18 24 24 22 19 16 13 9 6 2 2 4 4 4 7 12 14 10 6 6 7 7
30 30 25 20 15 10 21 33 29 27 25 26 22 21 17 17 20 21 27 29 28 26 24 24 24 24 23 20 23 24 23 20 17 14 10 6 3 2 4 6 5 7 9 13 10 8 6 6 7
32 33 30 22 18 16 15 23 34 31 28 30 27 20 22 21 21 21 25 29 30 29 28 24 24 25 24 22 23 24 24 23 20 16 12 9 6 4 6 6 6 6 9 13 12 9 8 7 7
33 36 29 25 23 20 24 22 24 34 31 32 30 24 25 24 22 24 24 27 30 30 29 27 25 25 25 25 23 24 25 24 22 19 15 11 9 7 7 8 7 6 9 11 12 12 10 10 10
37 35 30 30 28 27 29 27 23 26 35 35 34 29 27 27 23 26 26 28 31 32 30 31 28 26 27 27 25 24 25 25 23 21 18 15 12 11 10 9 9 7 9 11 13 13 13 12 12
38 37 32 33 33 32 33 30 30 24 29 38 36 35 31 28 29 28 25 27 32 35 36 34 33 31 29 28 27 25 24 25 25 24 21 18 16 14 11 11 11 10 9 11 13 14 13 14 14
40 37 34 35 37 37 35 34 32 31 26 35 39 38 38 35 30 29 27 29 32 34 36 37 35 34 32 31 29 28 26 26 26 25 24 21 19 16 14 13 13 12 11 12 14 15 14 14 15
38 38 36 34 36 38 38 37 36 33 31 27 38 39 41 40 35 31 29 29 32 33 36 37 36 35 35 34 32 31 30 28 26 26 26 24 21 18 16 15 15 14 13 13 15 16 15 15 16
38 36 34 33 35 38 40 39 40 35 38 34 29 41 42 42 42 35 31 27 28 33 36 38 39 38 36 34 34 34 32 30 29 27 27 26 23 21 19 17 17 15 15 15 16 16 16 17 17
36 36 35 34 35 38 41 41 40 38 40 39 35 32 43 44 44 36 36 31 32 36 41 39 39 38 36 36 36 35 34 33 32 30 27 27 25 22 21 19 18 17 16 16 18 17 17 18 18
37 39 38 36 38 38 41 38 43 43 44 43 39 35 40 47 44 43 40 37 33 32 35 40 39 39 38 38 38 38 36 36 35 34 30 28 26 24 23 21 20 19 18 17 19 18 19 19 20
36 38 39 40 41 43 43 44 48 48 48 49 46 42 36 44 47 44 41 42 36 34 32 37 40 41 40 39 40 38 38 38 37 36 33 29 28 26 25 23 21 20 20 19 19 19 21 21 22
37 39 40 41 41 44 44 52 47 52 52 53 51 48 43 39 45 51 51 43 41 36 35 35 36 39 42 42 40 39 39 40 39 39 35 32 31 28 27 26 23 23 22 21 20 21 21 23 24
35 37 41 41 39 44 45 52 48 50 51 55 55 53 50 46 45 49 49 54 45 44 37 33 34 34 37 39 38 38 37 41 41 40 39 36 34 30 29 28 26 25 24 22 22 22 22 24 25
34 36 37 34 33 41 44 53 57 51 53 56 58 56 54 50 48 45 53 52 52 44 42 37 36 34 34 36 37 39 41 43 45 44 41 39 37 33 30 30 28 27 25 24 23 23 23 24 26
30 27 30 34 35 38 42 53 52 50 53 58 59 60 58 55 53 47 51 53 50 50 44 40 40 34 36 36 38 39 41 43 43 42 42 40 36 31 33 32 30 29 28 27 26 26 27 27 28
31 35 39 40 46 48 49 54 51 52 52 56 63 63 64 60 57 53 48 54 57 51 49 46 44 39 39 37 35 35 36 39 41 44 44 42 38 36 38 34 34 32 30 30 29 29 29 31 31
38 42 45 48 49 53 51 60 55 54 55 49 60 66 66 65 60 55 49 49 58 55 55 49 49 40 29 32 33 33 34 37 43 44 45 45 41 40 41 37 36 34 33 33 31 32 33 34 35
37 41 44 48 53 65 56 63 61 57 55 55 57 67 68 69 65 60 55 49 56 61 52 55 50 50 30 32 31 29 31 35 39 42 45 45 42 43 41 37 38 36 36 35 34 35 36 39 37
38 44 48 53 55 57 48 52 57 52 58 56 56 64 70 68 69 63 57 50 55 59 59 55 53 49 41 32 30 26 29 33 37 42 46 47 43 43 40 38 40 40 39 38 36 37 37 40 42
33 33 35 39 41 42 41 53 55 58 62 67 54 61 70 70 68 64 57 53 49 52 58 59 52 47 43 34 29 30 30 33 36 42 46 45 43 44 43 41 44 40 39 39 40 40 40 40 45
38 29 29 31 33 37 38 17 21 27 35 48 48 53 64 67 68 65 58 55 50 53 54 62 54 47 42 40 32 34 32 34 34 41 45 44 45 44 43 44 44 41 41 41 43 44 42 41 42
21 15 13 16 20 17 14 17 22 22 15 29 41 42 54 60 60 62 56 51 46 42 55 60 56 50 45 43 42 36 36 36 37 41 41 41 43 44 44 45 44 44 43 44 45 46 45 44 44
9 10 10 15 15 17 14 15 21 13 20 24 23 32 45 48 49 53 50 47 42 41 52 47 59 55 50 45 46 41 42 39 41 41 41 43 46 45 45 45 47 48 46 48 49 47 47 45 51
10 8 13 8 12 16 19 28 16 15 23 30 22 27 34 39 42 39 43 43 40 34 39 46 53 58 52 48 50 47 46 45 44 42 42 46 47 48 48 51 52 50 51 49 51 51 52 49 47
Wind_Direction
252 237 229 234 243 242 249 238 246 244 242 242 227 210 187 191 191 190 188 180 179 178 177 169 166 161 158 157 154 152 145 141 135 130 122 108 104 97 78 81 70 47 32 20 19 26 17 22 25
271 240 237 235 242 238 237 230 249 249 237 237 226 221 197 197 195 193 196 188 191 180 179 177 170 162 162 163 162 154 150 147 143 134 126 118 106 83 61 81 63 41 29 20 16 16 25 26 29
271 258 241 240 241 233 231 232 241 247 237 235 231 224 219 205 201 198 201 195 194 184 179 167 166 162 168 169 167 160 158 156 149 143 139 124 104 75 63 82 49 35 25 15 12 16 33 27 21
260 260 257 242 239 229 224 241 241 239 235 231 231 224 219 213 205 203 206 203 201 184 181 171 170 170 170 177 175 171 169 165 161 159 146 130 105 71 58 67 36 21 13 11 14 26 19 27 16
256 258 257 259 247 227 226 242 243 231 235 235 233 229 234 217 208 206 208 210 206 196 185 181 179 180 177 183 182 181 179 177 173 169 164 150 114 60 32 13 18 7 9 14 15 5 14 17 9
254 256 254 247 249 233 230 239 237 233 235 237 231 229 227 207 210 210 210 215 212 209 195 189 189 189 190 191 187 187 188 187 186 187 183 174 151 27 5 354 340 358 8 11 3 356 1 10 5
248 250 250 242 237 240 238 236 235 236 235 230 228 228 224 212 206 214 217 216 220 214 209 198 196 196 196 196 194 194 195 196 199 201 202 202 221 311 331 337 324 344 360 7 359 346 339 345 348
244 246 246 244 237 232 243 245 240 235 232 229 235 230 231 226 216 210 220 220 221 220 215 211 207 203 202 200 201 201 203 203 207 211 214 223 243 282 308 318 301 325 347 357 352 337 321 322 323
241 244 241 242 236 231 236 239 244 238 231 233 236 224 228 228 222 212 217 227 225 224 222 215 215 210 208 206 206 207 210 210 214 218 224 230 249 272 288 301 291 303 328 343 344 329 314 305 306
244 245 238 238 237 230 236 240 245 244 235 231 235 231 226 230 222 218 213 224 224 222 224 224 219 218 214 212 212 212 213 217 219 224 229 236 248 264 278 292 288 284 309 328 340 325 309 298 301
249 247 239 234 235 232 234 234 239 243 241 231 230 233 222 227 229 225 225 223 227 224 224 222 223 219 216 217 215 217 220 222 225 228 232 239 247 260 270 283 283 275 296 314 329 325 307 301 301
246 247 240 234 232 232 233 237 240 242 245 239 229 230 237 224 232 230 228 224 227 229 229 231 226 225 221 219 217 218 221 225 228 231 235 240 246 255 265 276 278 272 285 301 320 323 302 295 297
247 245 242 235 234 233 234 234 238 241 247 246 237 227 232 233 223 226 230 230 226 230 229 230 232 230 227 222 220 221 222 225 229 232 236 240 245 252 260 270 273 270 278 293 314 317 300 295 298
249 248 246 240 234 235 235 235 238 238 241 243 246 234 229 233 226 222 228 229 228 234 234 231 230 229 230 228 226 225 225 227 230 233 236 240 243 249 257 266 270 270 275 289 310 310 296 294 295
250 249 247 244 238 234 237 233 240 238 243 242 240 243 233 231 233 220 224 216 225 226 232 232 232 231 229 230 230 228 227 229 231 234 236 240 242 245 255 262 266 266 273 287 309 305 297 292 293
249 249 249 246 243 237 236 227 237 234 238 242 241 240 238 234 233 225 222 218 221 231 234 234 235 235 232 230 231 230 228 229 230 234 236 240 241 243 253 259 261 260 270 285 303 301 297 292 292
252 252 251 246 242 240 236 236 230 234 232 236 236 235 237 237 236 232 218 214 220 225 231 237 235 236 235 234 233 232 229 230 231 234 235 238 240 243 252 255 256 255 264 281 296 295 293 290 292
253 255 256 255 252 251 248 247 233 232 233 236 236 233 231 235 238 233 228 218 215 223 228 234 239 238 239 236 234 234 232 232 232 234 234 235 240 244 250 252 253 251 261 277 290 290 290 291 292
257 255 255 253 254 249 247 246 243 240 237 238 237 236 231 229 232 236 234 228 222 220 220 233 241 243 241 241 239 239 237 236 234 234 234 234 238 241 247 249 249 248 259 275 285 290 292 291 292
258 255 257 258 256 256 254 247 246 239 235 236 238 237 236 232 231 234 232 234 232 226 226 227 241 244 241 240 238 236 233 233 233 233 233 235 237 238 244 247 247 247 257 272 280 285 291 295 295
240 255 251 256 265 270 268 250 251 247 238 230 233 238 237 233 232 231 232 227 230 232 228 229 232 234 240 237 237 236 237 236 237 237 236 237 240 241 245 244 243 245 256 268 277 283 291 295 298
251 257 261 270 278 277 272 262 248 251 256 242 231 230 234 232 231 233 232 226 226 229 233 227 234 235 235 238 240 239 239 237 236 234 234 235 236 235 239 239 239 243 253 264 273 281 286 290 293
257 259 266 270 274 277 275 277 264 263 262 259 239 229 230 232 229 229 229 226 226 222 231 228 228 229 231 239 244 241 241 241 238 236 236 234 234 235 238 239 238 242 251 261 270 277 283 287 291
266 268 269 271 275 274 282 275 270 268 267 263 254 229 225 227 226 224 226 224 224 219 220 227 227 236 225 239 243 243 243 243 242 238 237 237 235 237 240 239 240 244 251 260 268 274 279 285 291
287 285 283 280 276 280 277 268 268 257 265 263 252 230 222 224 224 223 222 223 221 226 222 223 226 233 234 230 239 241 241 245 242 238 236 235 234 236 240 238 240 244 250 260 270 273 278 285 290
299 290 284 280 279 283 279 270 273 264 252 254 245 218 215 218 220 220 220 221 224 223 227 223 225 230 232 232 232 240 240 242 243 240 239 238 236 236 237 236 241 245 253 261 268 273 278 282 293
311 293 277 278 286 287 291 290 278 279 253 240 224 203 210 215 218 218 216 219 224 218 223 223 220 226 229 238 225 236 236 241 242 243 240 238 237 236 238 239 245 249 255 262 268 273 278 281 293
330 333 305 302 307 295 264 284 290 298 271 205 193 199 207 210 213 215 214 218 227 233 218 226 218 221 225 233 227 227 236 237 238 239 240 237 236 237 239 242 248 253 258 264 270 275 280 282 288
349 357 360 340 316 289 301 340 310 287 185 169 178 191 201 208 210 215 215 214 223 229 226 228 221 221 223 229 237 227 232 234 237 234 236 238 237 237 240 246 252 256 260 265 271 275 280 281 284
8 360 359 358 343 331 331 3 10 202 183 147 165 189 207 199 201 209 212 216 220 224 225 232 228 223 223 229 235 235 228 233 234 235 233 237 239 240 243 249 253 258 262 268 274 277 277 277 288
Height
5824 5825 5826 5828 5831 5833 5835 5838 5840 5840 5842 5842 5844 5844 5845 5846 5848 5853 5853 5853 5854 5855 5857 5857 5859 5861 5863 5865 5867 5868 5869 5871 5872 5872 5873 5873 5873 5872 5872 5871 5871 5870 5869 5868 5866 5865 5864 5863 5861
5822 5821 5822 5823 5825 5829 5832 5834 5836 5837 5838 5839 5842 5842 5844 5844 5846 5849 5852 5852 5854 5854 5856 5857 5859 5861 5864 5866 5868 5869 5870 5871 5872 5873 5873 5873 5873 5872 5872 5872 5871 5871 5870 5868 5867 5865 5864 5863 5862
5819 5819 5818 5818 5821 5826 5828 5829 5831 5834 5835 5837 5839 5840 5841 5843 5844 5847 5850 5851 5853 5854 5856 5858 5859 5861 5864 5866 5869 5870 5870 5872 5873 5873 5873 5873 5873 5873 5872 5872 5871 5871 5870 5868 5867 5865 5864 5862 5861
5815 5816 5816 5815 5819 5821 5823 5824 5827 5830 5832 5834 5835 5838 5838 5840 5842 5845 5848 5850 5852 5852 5855 5857 5859 5861 5863 5866 5868 5870 5871 5872 5873 5873 5873 5873 5873 5873 5872 5872 5872 5871 5870 5868 5866 5865 5864 5862 5861
5809 5812 5812 5813 5814 5818 5818 5819 5823 5826 5829 5830 5832 5833 5835 5837 5839 5842 5845 5848 5850 5851 5853 5856 5858 5861 5862 5865 5867 5869 5870 5871 5872 5872 5872 5873 5873 5873 5872 5872 5871 5870 5869 5867 5866 5864 5863 5862 5861
5804 5806 5809 5811 5811 5812 5814 5814 5818 5822 5825 5826 5828 5829 5831 5833 5836 5840 5842 5846 5848 5850 5851 5853 5856 5859 5861 5863 5865 5867 5869 5870 5871 5871 5871 5871 5872 5872 5871 5871 5871 5870 5868 5866 5865 5864 5863 5862 5860
5798 5800 5804 5806 5808 5808 5809 5809 5813 5817 5819 5821 5825 5826 5828 5830 5833 5837 5840 5842 5846 5848 5850 5851 5853 5856 5858 5860 5862 5865 5867 5868 5869 5870 5870 5870 5870 5871 5870 5870 5870 5869 5867 5865 5864 5863 5861 5860 5859
5791 5792 5796 5801 5803 5803 5803 5803 5807 5810 5815 5817 5819 5824 5826 5827 5829 5833 5837 5839 5842 5845 5847 5849 5851 5854 5856 5858 5860 5862 5864 5865 5866 5867 5868 5869 5869 5869 5869 5869 5868 5868 5866 5864 5863 5862 5860 5858 5858
5783 5783 5791 5795 5796 5797 5796 5797 5799 5803 5808 5811 5814 5819 5821 5823 5826 5829 5832 5836 5839 5842 5844 5846 5848 5850 5853 5855 5856 5858 5860 5862 5864 5865 5866 5867 5867 5867 5867 5867 5866 5866 5865 5863 5861 5860 5858 5857 5855
5773 5778 5784 5787 5790 5791 5789 5791 5792 5796 5800 5804 5809 5811 5815 5819 5821 5824 5827 5831 5834 5837 5840 5842 5844 5846 5849 5851 5853 5855 5857 5859 5861 5862 5863 5864 5865 5865 5865 5865 5864 5864 5863 5862 5859 5857 5856 5855 5853
5765 5769 5776 5779 5781 5783 5783 5785 5787 5790 5793 5797 5802 5805 5808 5813 5817 5819 5823 5826 5829 5831 5834 5837 5839 5841 5843 5846 5849 5852 5854 5855 5857 5858 5860 5861 5862 5862 5862 5862 5861 5861 5861 5859 5858 5856 5854 5852 5851
5755 5759 5766 5771 5772 5775 5778 5779 5781 5783 5786 5790 5793 5798 5801 5806 5811 5815 5818 5820 5824 5827 5830 5833 5835 5838 5840 5842 5845 5847 5850 5851 5853 5854 5856 5857 5858 5858 5859 5859 5858 5858 5858 5857 5855 5853 5852 5850 5849
5746 5751 5756 5762 5765 5768 5769 5771 5773 5777 5780 5783 5786 5789 5794 5798 5802 5807 5812 5814 5818 5822 5824 5827 5831 5833 5835 5837 5840 5842 5845 5846 5848 5850 5851 5853 5855 5855 5855 5855 5855 5855 5855 5854 5851 5849 5848 5847 5846
5737 5742 5748 5753 5757 5759 5761 5765 5764 5773 5771 5775 5779 5782 5785 5790 5795 5799 5805 5809 5813 5816 5818 5820 5823 5826 5829 5832 5835 5837 5840 5842 5843 5845 5847 5848 5850 5851 5851 5851 5851 5851 5851 5850 5848 5846 5845 5844 5842
5729 5733 5736 5741 5746 5748 5750 5756 5759 5764 5764 5767 5772 5775 5779 5782 5788 5793 5796 5800 5805 5807 5810 5814 5817 5820 5824 5826 5828 5831 5835 5837 5838 5840 5842 5843 5845 5846 5846 5847 5847 5847 5847 5846 5844 5842 5841 5839 5838
5720 5723 5727 5733 5735 5738 5741 5751 5749 5752 5755 5759 5765 5768 5771 5774 5779 5785 5790 5794 5796 5800 5805 5807 5811 5815 5818 5820 5822 5825 5828 5831 5833 5835 5837 5838 5840 5841 5842 5842 5842 5842 5842 5841 5840 5838 5837 5835 5834
5712 5714 5717 5719 5721 5723 5730 5736 5736 5738 5744 5746 5752 5758 5764 5768 5772 5777 5782 5785 5789 5792 5797 5801 5803 5807 5810 5813 5816 5819 5822 5825 5828 5830 5832 5834 5835 5836 5837 5837 5837 5838 5838 5837 5836 5834 5833 5831 5830
5702 5704 5706 5708 5713 5714 5720 5717 5727 5728 5734 5738 5742 5747 5753 5759 5765 5768 5772 5776 5779 5785 5787 5793 5797 5800 5803 5806 5809 5813 5816 5819 5822 5824 5826 5828 5829 5831 5832 5832 5833 5833 5834 5833 5831 5830 5829 5828 5826
5693 5695 5695 5697 5698 5701 5705 5704 5714 5721 5727 5728 5733 5738 5743 5747 5754 5758 5764 5770 5773 5776 5780 5785 5790 5795 5797 5801 5804 5808 5811 5811 5814 5817 5819 5821 5823 5824 5826 5827 5828 5828 5828 5828 5827 5825 5824 5822 5821
5683 5683 5685 5686 5685 5686 5689 5692 5693 5704 5711 5717 5721 5726 5734 5740 5743 5749 5754 5760 5765 5770 5775 5778 5782 5787 5791 5793 5796 5798 5800 5801 5804 5808 5812 5815 5816 5818 5820 5821 5822 5822 5822 5822 5821 5820 5819 5817 5815
5673 5674 5675 5675 5676 5676 5674 5677 5683 5690 5693 5701 5708 5715 5721 5729 5733 5737 5742 5751 5758 5761 5768 5773 5775 5777 5781 5784 5786 5790 5792 5794 5799 5804 5806 5808 5811 5814 5813 5814 5815 5816 5816 5816 5815 5814 5813 5811 5810
5667 5664 5662 5664 5662 5663 5662 5660 5670 5675 5679 5687 5694 5698 5706 5713 5722 5728 5733 5739 5746 5755 5760 5764 5765 5769 5772 5776 5780 5784 5786 5789 5793 5794 5796 5799 5802 5804 5805 5806 5807 5809 5809 5809 5809 5808 5806 5805 5804
5657 5654 5653 5650 5650 5645 5651 5642 5657 5659 5665 5672 5676 5684 5690 5700 5708 5716 5724 5730 5737 5743 5749 5756 5758 5760 5764 5769 5773 5777 5779 5783 5783 5785 5788 5790 5793 5796 5797 5799 5800 5802 5802 5802 5802 5801 5799 5798 5797
5644 5642 5640 5636 5633 5620 5643 5623 5635 5642 5646 5652 5655 5666 5675 5683 5692 5701 5711 5718 5724 5731 5736 5745 5752 5754 5757 5762 5767 5770 5773 5774 5776 5778 5780 5783 5785 5788 5790 5793 5794 5794 5795 5795 5794 5794 5793 5790 5789
5634 5629 5623 5618 5613 5611 5617 5606 5614 5627 5628 5631 5633 5639 5655 5666 5678 5689 5698 5708 5713 5721 5731 5735 5742 5747 5751 5755 5760 5763 5764 5765 5768 5768 5771 5773 5777 5780 5783 5785 5785 5786 5787 5787 5787 5787 5786 5783 5782
5621 5616 5611 5604 5601 5601 5603 5595 5599 5597 5599 5597 5608 5618 5635 5649 5665 5676 5688 5698 5704 5710 5720 5727 5733 5740 5744 5747 5752 5754 5755 5757 5760 5761 5763 5767 5770 5772 5773 5776 5776 5777 5779 5780 5780 5779 5778 5775 5773
5610 5605 5601 5595 5595 5592 5592 5591 5587 5580 5577 5579 5592 5605 5622 5638 5652 5664 5675 5686 5694 5701 5707 5716 5722 5730 5735 5738 5742 5746 5747 5750 5753 5755 5756 5758 5761 5763 5765 5766 5768 5769 5771 5771 5770 5769 5769 5767 5764
5604 5600 5596 5593 5589 5587 5587 5582 5577 5572 5571 5574 5585 5597 5612 5628 5642 5655 5666 5677 5686 5692 5697 5704 5711 5717 5724 5727 5731 5736 5739 5740 5743 5745 5748 5751 5753 5754 5756 5757 5759 5760 5761 5761 5760 5760 5761 5759 5756
5607 5603 5598 5595 5591 5588 5584 5581 5574 5570 5571 5580 5589 5599 5610 5624 5638 5649 5659 5668 5676 5683 5690 5696 5702 5707 5713 5718 5723 5725 5730 5732 5734 5737 5740 5742 5744 5746 5748 5749 5749 5751 5752 5751 5750 5750 5750 5748 5745
5607 5605 5601 5598 5594 5588 5583 5579 5576 5573 5574 5580 5590 5605 5611 5621 5634 5644 5653 5660 5667 5673 5681 5688 5694 5699 5704 5710 5713 5718 5720 5722 5724 5729 5731 5732 5734 5736 5737 5737 5739 5741 5742 5742 5741 5739 5738 5735 5735